User: anonymous   Login
Location: Dallas
(32.7833°N, 96.8000°W)
Time: 00:44:59
(UTC-06:00)
Language:

Envisat - Orbit

View from above orbital plane
View from above orbital plane
View from above satellite
View from above satellite

Ground track
Ground track

The orbit data is extracted from the following two-line orbital elements,

1 27386U 02009A   21065.76912002  .00000036  00000-0  25254-4 0  9999
2 27386  98.1456  65.0894 0001295  92.8884  85.0016 14.38015230996314
Epoch (UTC): 06 March 2021 18:27:31
Eccentricity: 0.0001295
inclination: 98.1456°
perigee height: 764 km
apogee height: 766 km
right ascension of ascending node: 65.0894°
argument of perigee: 92.8884°
revolutions per day: 14.38015230
mean anomaly at epoch: 85.0016°
orbit number at epoch: 99631

The dashed part of the orbit path shows where the satellite is in the earth's shadow,  

DLR